SCP
0 0 0 0 0 0 0 0 0 0 0 0 0 0 0 0 0 0 0 0 0 0 0 0 0 0 0 0 0 0 0 0 0 0 0 0 0 0
0 0 0 0 0 0 0 0 0 0 0 0 0 0 0 0 0 0 0 0 0 0 0 0 0 0 0 0 0 0 0 0 0 0 0 0 0 0
0 0 0 0 0 0 0 0 0 0 0 0 0 0 0 0 0 0 0 0 0 0 0 0 0 0 0 0 0 0 0 0 0 0 0 0 0 0
0 0 0 0 0 0 0 0 0 0 0 0 0 0 0 0 0 0 0 0 0 0 0 0 0 0 0 0 0 0 0 0 0 0 0 0 0 0
0 0 0 0 0 0 0 0 0 0 0 0 0 0 0 0 0 0 0 0 0 0 0 0 0 0 0 0 0 0 0 0 0 0 0 0 0 0
0 0 0 0 0 0 0 0 0 0 0 0 0 0 0 0 0 0 0 0 0 0 0 0 0 0 0 0 0 0 0 0 0 0 0 0 0 0
0 0 0 0 0 0 0 0 0 0 0 0 0 0 0 0 0 0 0 0 0 0 0 0 0 0 0 0 0 0 0 0 0 0 0 0 0 0
0 0 0 0 0 0 0 0 0 0 0 0 0 0 0 0 0 0 0 0 0 0 0 0 0 0 0 0 0 0 0 0 0 0 0 0 0 0
0 0 0 0 0 0 0 0 0 0 0 0 0 0 0 0 0 0 0 0 0 0 0 0 0 0 0 0 0 0 0 0 0 0 0 0 0 0
0 0 0 0 0 0 0 0 0 0 0 0 0 0 0 0 0 0 0 0 0 0 0 0 0 0 0 0 0 0 0 0 0 0 0 0 0 0
0 0 0 0 0 0 0 0 0 0 0 0 0 0 0 0 0 0 0 0 0 0 0 0 0 0 0 0 0 0 0 0 0 0 0 0 0 0
0 0 0 0 0 0 0 0 0 0 0 0 0 0 0 0 0 0 0 0 0 0 0 0 0 0 0 0 0 0 0 0 0 0 0 0 0 0
0 0 0 0 0 0 0 0 0 0 0 0 0 0 0 0 0 0 0 0 0 0 0 0 0 0 0 0 0 0 0 0 0 0 0 0 0 0
0 0 0 0 0 0 0 0 0 0 0 0 0 0 0 0 0 0 0 0 0 0 0 0 0 0 0 0 0 0 0 0 0 0 0 0 0 0
0 0 0 0 0 0 0 0 0 0 0 0 0 0 0 0 0 0 0 0 0 0 0 0 0 0 0 0 0 0 0 0 0 0 0 0 0 0
0 0 0 0 0 0 0 0 0 0 0 0 0 0 0 0 0 0 0 0 0 0 0 0 0 0 0 0 0 0 0 0 0 0 0 0 0 0
0 0 0 0 0 0 0 0 0 0 0 0 0 0 0 0 0 0 0 0 0 0 0 0 0 0 0 0 0 0 0 0 0 0 0 0 0 0
0 0 0 0 0 0 0 0 0 0 0 0 0 0 0 0 0 0 0 0 0 0 0 0 0 0 0 0 0 0 0 0 0 0 0 0 0 0
0 0 0 0 0 0 0 0 0 0 0 0 0 0 0 0 0 0 0 0 0 0 0 0 0 0 0 0 0 0 0 0 0 0 0 0 0 0
0 0 0 0 0 0 0 0 0 0 0 0 0 0 0 0 0 0 0 0 0 0 0 0 0 0 0 0 0 0 0 0 0 0 0 0 0 0
0 0 0 0 0 0 0 0 0 0 0 0 0 0 0 0 0 0 0 0 0 0 0 0 0 0 0 0 0 0 0 0 0 0 0 0 0 0
0 0 0 0 0 0 0 0 0 0 0 0 0 0 0 0 0 0 0 0 0 0 0 0 0 0 0 0 0 0 0 0 0 0 0 0 0 0
0 0 0 0 0 0 0 0 0 0 0 0 0 0 0 0 0 0 0 0 0 0 0 0 0 0 0 0 0 0 0 0 0 0 0 0 0 0
Wind_Speed
2 2 2 2 1 1 2 3 3 2 2 2 2 2 2 1 2 2 1 3 3 3 4 5 6 6 6 5 6 6 6 6 6 5 5 5 4 4
2 2 1 1 1 1 2 1 2 3 2 2 1 2 2 1 2 1 1 3 3 3 4 4 4 5 5 6 5 5 5 5 5 5 5 4 4 4
1 2 1 2 1 1 1 1 1 2 2 1 1 1 1 1 2 2 1 1 1 3 3 3 3 4 4 5 5 5 4 5 5 4 4 4 4 3
2 2 2 2 2 1 2 2 2 2 3 2 1 1 1 1 1 1 1 1 1 1 1 2 3 3 4 4 4 4 4 4 4 4 3 3 3 3
3 3 3 3 2 2 2 2 2 1 2 2 1 0 1 1 1 1 1 2 1 1 1 1 1 2 3 4 4 3 4 4 4 4 3 2 3 3
3 3 3 4 4 4 3 3 2 2 2 2 1 1 1 1 0 0 1 1 1 1 1 1 1 1 2 3 3 3 3 3 3 3 3 3 2 2
3 3 4 5 5 4 3 3 3 3 2 2 2 1 1 1 1 1 1 1 2 1 1 1 1 1 1 2 2 2 2 2 2 3 3 3 3 2
3 3 3 4 5 6 6 6 6 5 4 3 2 3 3 3 2 2 1 0 2 1 1 1 0 1 1 1 2 2 1 1 1 1 1 2 2 2
4 3 3 3 4 4 5 5 6 6 7 5 5 5 5 5 4 3 3 3 3 2 1 1 1 2 2 2 3 3 2 2 1 1 1 1 2 2
4 4 4 4 4 5 4 3 3 4 5 4 5 5 4 4 5 4 3 1 1 1 1 2 1 2 2 2 4 3 3 3 3 2 2 3 3 3
4 4 5 5 7 7 4 4 3 3 4 5 5 4 4 5 5 3 3 2 2 2 2 2 1 1 2 2 3 4 3 4 3 4 4 4 3 3
3 4 7 7 7 7 5 5 5 4 3 2 2 3 3 4 6 5 4 3 2 2 3 2 2 1 2 2 2 2 2 3 4 4 4 4 3 2
3 3 4 8 8 8 7 6 7 4 3 3 2 1 1 2 3 3 4 4 3 3 3 3 2 2 2 2 2 2 2 2 2 3 4 5 4 3
4 4 4 7 7 7 6 6 6 4 2 2 2 2 2 3 3 3 4 3 3 4 4 5 3 3 3 2 3 2 2 2 2 2 2 4 4 4
4 5 5 6 6 5 6 7 5 3 3 2 3 3 3 3 2 1 2 2 2 2 3 4 4 3 3 4 3 2 2 2 3 3 2 3 3 3
3 3 4 4 4 4 4 4 3 3 4 4 3 2 1 1 2 2 2 2 1 2 3 4 4 4 4 4 4 4 3 3 3 3 3 3 3 4
2 1 1 1 2 2 2 2 2 3 3 3 3 2 2 2 2 2 2 2 2 3 2 1 2 3 4 4 4 5 4 3 4 3 3 4 4 5
3 2 3 3 4 4 4 3 3 4 4 3 3 3 3 3 3 2 2 3 4 4 3 2 1 1 1 4 7 6 4 4 3 3 3 4 5 5
3 3 3 4 4 4 4 4 4 4 4 4 4 4 3 3 3 3 3 3 4 4 4 3 3 3 3 5 5 7 5 4 3 3 4 4 6 5
3 3 4 4 4 4 4 4 4 3 3 4 4 4 4 4 4 4 4 5 5 4 3 3 4 5 6 6 4 4 7 5 4 5 4 3 4 4
3 3 3 3 4 4 4 4 4 4 4 4 4 5 5 4 5 5 5 6 5 4 5 6 7 7 3 1 3 4 3 6 6 5 4 3 3 3
3 3 3 3 3 4 4 4 4 4 4 5 5 5 5 5 6 6 5 5 6 6 7 5 3 3 3 5 6 5 4 3 4 6 6 6 4 5
3 3 3 3 3 3 3 4 5 5 5 5 5 5 5 5 5 5 6 6 5 6 5 4 3 3 5 6 6 5 6 4 3 3 4 6 9 10
Wind_Direction
185 177 169 173 166 159 154 154 152 177 266 289 306 333 341 353 5 29 21 20 35 47 45 39 34 32 33 38 41 36 34 33 33 33 33 41 49 61
180 161 161 161 154 150 154 149 147 158 206 257 266 306 330 6 32 36 14 22 26 38 45 43 37 33 32 31 30 28 28 30 30 32 32 36 47 64
175 167 177 157 157 153 141 133 136 140 166 269 286 306 344 11 10 6 10 18 351 23 39 47 44 41 37 30 24 24 22 21 21 29 35 34 49 65
202 177 190 172 172 163 155 166 167 160 157 198 271 311 313 298 355 343 348 351 309 346 16 40 45 42 35 28 24 22 24 22 16 15 32 29 37 56
201 195 199 178 187 184 181 181 176 162 152 165 212 278 308 343 25 356 356 339 321 353 343 5 40 44 36 27 24 23 22 22 21 19 29 20 24 41
207 208 206 195 196 192 189 189 172 154 148 153 185 229 256 318 84 346 337 336 323 345 351 345 347 16 16 13 14 12 15 22 28 24 23 20 14 13
215 217 218 213 208 195 191 185 171 164 161 169 188 197 218 208 215 211 216 317 300 295 329 320 327 340 327 328 342 351 2 19 25 31 22 15 5 355
218 230 231 221 217 218 216 197 182 177 181 182 196 209 222 212 193 183 171 161 281 265 178 278 226 266 276 271 283 302 319 339 350 6 10 353 344 335
213 218 230 227 212 210 222 216 212 213 198 185 197 215 211 202 179 183 199 203 224 225 159 250 263 263 268 277 273 264 267 286 298 295 300 306 305 302
221 217 215 226 217 200 195 200 220 229 222 211 212 223 219 197 186 189 191 199 267 249 164 221 243 257 280 275 272 254 249 257 266 275 281 280 282 288
229 223 217 220 224 203 186 197 221 248 245 231 234 234 220 198 170 138 144 155 234 238 191 203 228 262 280 271 276 273 259 254 256 264 270 272 269 277
234 233 231 223 220 203 192 193 211 230 225 235 241 247 225 203 190 181 178 180 202 234 203 190 197 174 281 279 279 284 276 265 260 260 262 262 260 256
226 230 232 226 222 214 202 202 218 212 197 197 209 217 202 200 208 206 197 191 197 225 193 172 182 187 209 268 281 261 251 256 259 264 261 255 246 234
227 227 224 219 219 214 210 215 211 193 170 179 197 216 219 224 227 221 219 226 229 227 192 174 187 191 189 223 257 265 261 251 240 251 256 258 246 244
230 225 223 217 212 213 214 206 193 181 174 190 212 225 227 226 216 213 219 233 264 258 201 195 193 195 195 210 226 233 253 252 229 237 244 245 242 235
239 233 224 216 203 204 200 201 197 193 192 205 216 225 207 198 207 203 206 205 239 270 245 215 208 199 211 223 216 229 222 228 229 234 242 251 249 237
196 167 171 175 188 198 199 201 195 194 208 209 204 208 213 214 222 207 196 197 219 242 254 250 235 233 226 213 225 231 230 240 232 220 228 254 254 243
173 194 203 202 203 204 206 211 207 210 211 206 207 209 213 220 227 219 208 212 230 238 239 222 197 252 281 259 224 226 224 234 234 217 221 240 256 250
191 208 210 210 211 212 211 211 217 217 209 204 210 214 218 220 220 224 221 225 235 238 239 217 196 202 240 266 255 214 219 229 218 220 225 232 246 251
211 211 217 216 215 217 220 220 221 214 209 212 215 218 217 218 220 223 223 227 234 237 240 225 215 216 227 244 255 249 224 218 215 228 233 249 265 270
227 227 223 221 220 219 224 224 220 220 220 217 219 221 220 219 224 225 226 234 233 235 240 241 236 229 230 226 261 263 247 232 230 227 216 227 253 251
233 233 232 229 230 224 222 222 224 225 224 225 225 223 221 222 227 226 225 227 230 236 244 251 233 199 203 225 249 256 255 257 253 250 234 221 214 222
241 238 237 235 234 235 229 224 224 228 226 228 229 226 223 226 230 229 230 232 235 240 246 247 227 215 223 229 242 254 253 246 244 253 260 265 257 260